[[{"header":{"parameterUnit":"m.s-1","parameterCategory":1,"la1":30.2991,"la2":30.254,"lo1":-89.0895,"lo2":-89.0444,"dy":0.0017,"dx":0.0017,"nx":28,"ny":28,"refTime":"2025-09-19T09:00:00:Z","depth":0,"parameterNumber":2,"parameterNumberName":"U-component_of_WINDS"},"data":[0,0,0,0,0,0,0,0,0,0,0,0,0,0,0,0,0,0,0,0,0,0,0,0,0,0,0,0,0,0,0,0,0,0,0,0,0,0,0,0,0,0,0,0,0,0,0,0,0,0,0,0,0,0,0,0,0,0,0.4351,0.4351,0,0.4396,0.4396,0.4397,0.437,0.4368,0.4367,0.4366,0.4423,0.4426,0.4429,0,0,0,0,0,0,0,0,0,0,0,0,0,0.425,0.4252,0.435,0.4351,0.4352,0.4395,0.4396,0.4397,0.437,0.4368,0.4367,0.4365,0.4423,0.4426,0.4429,0,0,0,0,0,0,0,0,0,0,0,0,0,0.4294,0.4252,0.435,0.4343,0.4343,0.4395,0.4396,0.4397,0.437,0.4368,0.4366,0.4364,0.4421,0.4425,0.443,0.4495,0,0,0.4442,0.4444,0,0,0,0,0,0,0,0,0.4292,0.4298,0.4344,0.4344,0.4344,0.4375,0.4382,0.443,0.4371,0.436,0.4366,0.4363,0.441,0.4415,0.4428,0.4498,0.45,0.4443,0.4445,0.4447,0.4448,0,0,0,0,0,0,0,0.4289,0.4296,0.4369,0.4344,0.4344,0.4341,0.4345,0.4391,0.4396,0.4361,0.4359,0.4364,0.4409,0.4424,0.4429,0.4501,0.4443,0.4446,0.4449,0.445,0.4625,0.4627,0,0,0,0,0,0,0.4285,0.4294,0.4367,0.437,0.4312,0.4344,0.4349,0.4367,0.4395,0.4397,0.4366,0.4363,0.4418,0.4424,0.4431,0.4508,0.4447,0.4451,0.4453,0.4623,0.4626,0.4628,0,0,0,0,0,0,0.4283,0.4292,0.4365,0.4331,0.434,0.4348,0.4369,0.4369,0.4383,0.4399,0.4401,0.4379,0.4416,0.4425,0.4478,0.4509,0.4453,0.4456,0.4621,0.4624,0.4627,0.4663,0,0,0,0,0,0,0.428,0.4291,0.4314,0.4332,0.4342,0.4409,0.4371,0.4371,0.4389,0.4386,0.4412,0.4414,0.4416,0.4472,0.4482,0.4514,0.446,0.4618,0.4622,0.4626,0.4659,0.4667,0.4674,0,0,0,0,0,0.4277,0.4325,0.4315,0.4325,0.437,0.4411,0.4417,0.4414,0.4392,0.4416,0.4426,0.4414,0.4504,0.4478,0.4489,0.4523,0.4616,0.4621,0.4626,0.4656,0.4665,0.4674,0,0,0,0,0,0,0.4316,0.4328,0.4317,0.4372,0.439,0.4406,0.4437,0.4425,0.4453,0.4449,0.4448,0.4454,0.4508,0.4521,0.4491,0.4586,0.4557,0.4564,0.4576,0.4585,0.4593,0.4589,0.4463,0,0,0,0,0,0.433,0.4359,0.4369,0.4417,0.4426,0.443,0.4448,0.4443,0.4463,0.4472,0.4486,0.4509,0.4542,0.4565,0.4597,0.4661,0.4666,0.4689,0.4697,0.4703,0.4709,0.4743,0.4753,0.4644,0.4644,0.4644,0,0,0.4362,0.4372,0.4391,0.4425,0.4438,0.447,0.4437,0.4473,0.4497,0.4479,0.4528,0.4539,0.4565,0.4622,0.4649,0.4635,0.474,0.4709,0.4713,0.4717,0.4749,0.4759,0.4768,0.4647,0.4647,0.4646,0,0,0.4435,0.4445,0.4485,0.4498,0.4517,0.4518,0.4528,0.4545,0.455,0.4599,0.4585,0.4616,0.4674,0.4692,0.4709,0.4785,0.4775,0.4796,0.4835,0.4868,0.4876,0.4884,0.4911,0.492,0.4803,0.4803,0.4803,0,0.4472,0.4516,0.4508,0.4543,0.4559,0.4539,0.4581,0.4595,0.4626,0.4638,0.4621,0.4691,0.4707,0.4768,0.4786,0.4801,0.4813,0.4793,0.4875,0.4883,0.489,0.4915,0.4925,0.4805,0.4805,0.4805,0.4804,0,0.4561,0.4592,0.4623,0.4647,0.4666,0.4705,0.4705,0.4726,0.4719,0.4724,0.4773,0.4791,0.4825,0.484,0.4836,0.49,0.489,0.4874,0.4845,0.4903,0.4926,0.4936,0.4808,0.4808,0.4807,0.4806,0,0,0.4661,0.4678,0.4689,0.4699,0.4718,0.4743,0.4781,0.481,0.4828,0.485,0.4882,0.493,0.4914,0.4933,0.4931,0.496,0.5018,0.494,0.4941,0.4953,0.5089,0.51,0.5111,0.5011,0.5012,0.5014,0.5086,0,0.4734,0.4796,0.4789,0.4849,0.4878,0.4859,0.4892,0.4908,0.4913,0.494,0.4947,0.498,0.4957,0.4968,0.4995,0.5005,0.5045,0.5,0.5043,0.5044,0.5036,0.5124,0.5136,0.5203,0.5095,0.5097,0.5098,0,0.4828,0.4847,0.4909,0.4921,0.4933,0.4962,0.4987,0.5013,0.5031,0.5033,0.5052,0.5045,0.5085,0.5053,0.511,0.5079,0.5096,0.5103,0.5106,0.511,0.5075,0.513,0.5225,0.5235,0.5113,0.5112,0.5111,0,0.4893,0.4935,0.4977,0.4987,0.5002,0.5023,0.5031,0.5047,0.5064,0.5087,0.5098,0.5128,0.5144,0.5168,0.5169,0.5146,0.5225,0.5194,0.5229,0.5229,0.5247,0.5246,0.5346,0.5259,0.5259,0.5258,0.5258,0,0.4975,0.5013,0.5006,0.5032,0.5075,0.5067,0.511,0.5117,0.513,0.5159,0.5146,0.5173,0.5173,0.5202,0.5204,0.5249,0.5257,0.5261,0.5261,0.5262,0.5261,0.5273,0.5268,0.5261,0.5261,0.526,0.526,0,0.5055,0.5051,0.5095,0.5105,0.5108,0.5139,0.5149,0.5174,0.5176,0.5212,0.522,0.5226,0.5258,0.5261,0.5301,0.5302,0.5357,0.5352,0.5349,0.5348,0.5382,0.5378,0.5493,0.5507,0.5412,0.5413,0.5413,0,0.5107,0.5135,0.5146,0.5162,0.517,0.5197,0.5213,0.5206,0.5224,0.5246,0.5269,0.5299,0.5323,0.5377,0.5386,0.5416,0.5412,0.545,0.5417,0.5416,0.5412,0.541,0.5412,0.5457,0.5458,0.5459,0.5459,0,0.5199,0.5195,0.5217,0.5238,0.5256,0.5274,0.529,0.5305,0.53,0.5322,0.5352,0.5371,0.5408,0.5439,0.5468,0.5479,0.5469,0.5469,0.5479,0.548,0.5476,0.5477,0.5366,0.5467,0.5466,0.5466,0.5465,0.5465,0.5266,0.5289,0.53,0.5324,0.5335,0.535,0.5373,0.5376,0.5401,0.5428,0.5424,0.5458,0.5476,0.5512,0.5525,0.5554,0.5542,0.5556,0.5559,0.5562,0.5565,0.5471,0.556,0.5559,0.5559,0.5559,0.5559,0,0.5357,0.5361,0.5384,0.5404,0.5424,0.5408,0.5425,0.5443,0.5472,0.5487,0.551,0.5545,0.5574,0.5584,0.5613,0.5634,0.563,0.5642,0.564,0.5643,0.5575,0.5563,0.5644,0.5644,0.5644,0.5644,0.5644,0.5644,0.5406,0.5444,0.5441,0.5485,0.549,0.5521,0.5531,0.5545,0.5557,0.5595,0.5618,0.5623,0.5636,0.5665,0.5692,0.5694,0.5706,0.5719,0.572,0.5656,0.5648,0.564,0.5628,0.5722,0.5722,0.5785,0.5785,0.5786]},{"header":{"parameterUnit":"m.s-1","parameterCategory":1,"la1":30.2991,"la2":30.254,"lo1":-89.0895,"lo2":-89.0444,"dy":0.0017,"dx":0.0017,"nx":28,"ny":28,"refTime":"2025-09-19T09:00:00:Z","depth":0,"parameterNumber":3,"parameterNumberName":"V-component_of_WINDS"},"data":[0,0,0,0,0,0,0,0,0,0,0,0,0,0,0,0,0,0,0,0,0,0,0,0,0,0,0,0,0,0,0,0,0,0,0,0,0,0,0,0,0,0,0,0,0,0,0,0,0,0,0,0,0,0,0,0,0,0,2.387,2.3868,0,2.3704,2.3702,2.37,2.3634,2.3635,2.3635,2.3636,2.3456,2.3451,2.3446,0,0,0,0,0,0,0,0,0,0,0,0,0,2.4118,2.4114,2.387,2.3868,2.3866,2.3704,2.3702,2.3699,2.3634,2.3635,2.3635,2.3636,2.3458,2.3452,2.3446,0,0,0,0,0,0,0,0,0,0,0,0,0,2.3987,2.4113,2.387,2.3814,2.3807,2.3704,2.3702,2.3699,2.3634,2.3635,2.3636,2.3636,2.346,2.3452,2.3445,2.3383,0,0,2.3421,2.3417,0,0,0,0,0,0,0,0,2.3995,2.3978,2.3824,2.3818,2.381,2.3691,2.3723,2.3592,2.3634,2.37,2.3636,2.3637,2.3533,2.3519,2.3486,2.3374,2.3367,2.342,2.3415,2.3412,2.341,0,0,0,0,0,0,0,2.4004,2.3985,2.3804,2.3822,2.3813,2.3793,2.3775,2.3698,2.3614,2.3694,2.3689,2.3671,2.3529,2.3494,2.3482,2.3364,2.342,2.3413,2.3409,2.3405,2.3188,2.3187,0,0,0,0,0,0,2.4024,2.3993,2.3809,2.3799,2.3906,2.3788,2.3768,2.3728,2.3615,2.3598,2.367,2.3668,2.3507,2.3491,2.3475,2.3393,2.3412,2.3405,2.34,2.3189,2.3187,2.3186,0,0,0,0,0,0,2.4029,2.4008,2.3816,2.3894,2.3868,2.3783,2.3739,2.3724,2.3689,2.3597,2.3581,2.3651,2.3507,2.3486,2.3406,2.3386,2.3401,2.3394,2.319,2.3188,2.3187,2.3229,0,0,0,0,0,0,2.4037,2.4011,2.3989,2.3895,2.3865,2.3753,2.3738,2.3721,2.3677,2.3673,2.3574,2.3558,2.3506,2.3418,2.3398,2.3375,2.3388,2.3191,2.3189,2.3187,2.3229,2.3229,2.323,0,0,0,0,0,2.4046,2.4007,2.3989,2.3967,2.3837,2.3752,2.3735,2.3678,2.3676,2.3652,2.3591,2.3562,2.3391,2.341,2.3387,2.3362,2.3192,2.319,2.3187,2.3229,2.3229,2.323,0,0,0,0,0,0,2.4099,2.3993,2.3972,2.3902,2.3837,2.3742,2.371,2.368,2.3612,2.3611,2.3539,2.3517,2.3442,2.3393,2.3417,2.3293,2.3289,2.3282,2.3329,2.3328,2.3328,2.3341,2.3382,0,0,0,0,0,2.4103,2.4047,2.3956,2.3902,2.3871,2.3796,2.3757,2.3719,2.3647,2.3619,2.3553,2.3482,2.3411,2.3367,2.3297,2.3221,2.3197,2.3192,2.3192,2.3193,2.3187,2.314,2.3136,2.3178,2.3178,2.3178,0,0,2.411,2.4045,2.4014,2.3911,2.3857,2.3796,2.3773,2.3711,2.3664,2.3608,2.3529,2.3478,2.3393,2.3314,2.3276,2.3271,2.317,2.3189,2.3191,2.3185,2.3137,2.3133,2.3129,2.3176,2.3177,2.3177,0,0,2.4091,2.4038,2.3987,2.3932,2.385,2.3799,2.3787,2.3695,2.366,2.358,2.3535,2.3476,2.3358,2.3299,2.3253,2.3208,2.3176,2.3187,2.3187,2.3141,2.3138,2.3135,2.3117,2.3111,2.3181,2.3182,2.3182,0,2.411,2.4021,2.3963,2.3903,2.3857,2.3805,2.375,2.3698,2.3596,2.3564,2.3561,2.3409,2.3349,2.3254,2.3243,2.3208,2.3188,2.3198,2.3144,2.314,2.3136,2.3118,2.3111,2.3183,2.3183,2.3183,2.3183,0,2.4045,2.3984,2.3951,2.3857,2.3807,2.375,2.3679,2.3635,2.36,2.3548,2.3464,2.339,2.3303,2.3277,2.3241,2.3175,2.3175,2.3159,2.3153,2.3135,2.3116,2.3109,2.3186,2.3185,2.3185,2.3184,0,0,2.4059,2.3931,2.392,2.3875,2.3779,2.3728,2.3665,2.3583,2.3546,2.3475,2.3419,2.3318,2.3302,2.325,2.3206,2.3167,2.3132,2.3154,2.3151,2.3152,2.3052,2.3065,2.3058,2.3111,2.3109,2.3108,2.3058,0,2.4027,2.3918,2.3862,2.3775,2.3714,2.3662,2.3607,2.3539,2.3489,2.3427,2.3369,2.3298,2.3283,2.3251,2.3209,2.3146,2.3111,2.3148,2.3054,2.3051,2.3078,2.3048,2.3062,2.302,2.3051,2.305,2.3049,0,2.3976,2.3909,2.3817,2.3725,2.3697,2.3649,2.3567,2.351,2.343,2.3396,2.3337,2.3293,2.3221,2.322,2.3116,2.3143,2.31,2.3062,2.3059,2.3048,2.305,2.3035,2.3005,2.2998,2.3037,2.3038,2.3039,0,2.3993,2.3879,2.3808,2.3771,2.3663,2.363,2.3582,2.3503,2.3456,2.3382,2.335,2.3268,2.3223,2.3159,2.3093,2.3099,2.2995,2.2989,2.2961,2.2963,2.2942,2.2944,2.2904,2.2916,2.2916,2.2916,2.2916,0,2.3963,2.3908,2.3814,2.3771,2.3706,2.364,2.3576,2.3524,2.3453,2.3395,2.3343,2.3289,2.3206,2.3139,2.3086,2.3007,2.2987,2.2955,2.2941,2.2959,2.2963,2.2931,2.2932,2.2914,2.2914,2.2915,2.2915,0,2.3972,2.3908,2.3827,2.373,2.3704,2.366,2.3575,2.3528,2.3474,2.3401,2.338,2.3293,2.3212,2.314,2.3032,2.2996,2.2915,2.2898,2.2943,2.2936,2.2912,2.2915,2.2848,2.2835,2.2857,2.2857,2.2857,0,2.3958,2.3915,2.3813,2.3772,2.3726,2.3661,2.3612,2.3543,2.3494,2.3398,2.3362,2.3278,2.3207,2.3079,2.3004,2.292,2.2901,2.2883,2.2888,2.2906,2.2899,2.2902,2.2896,2.2884,2.2884,2.2884,2.2884,0,2.3939,2.3908,2.3843,2.3765,2.3709,2.3643,2.3576,2.3544,2.3461,2.3408,2.3326,2.3271,2.3161,2.3077,2.2984,2.293,2.2892,2.2883,2.2872,2.289,2.2917,2.2901,2.2944,2.2885,2.2885,2.2885,2.2885,2.2885,2.3934,2.3893,2.3814,2.3742,2.3684,2.3621,2.3572,2.3511,2.3443,2.3351,2.3312,2.3228,2.3144,2.3016,2.2962,2.2892,2.2885,2.2869,2.2865,2.2862,2.2865,2.2929,2.2874,2.2874,2.2874,2.2874,2.2874,0,2.3912,2.3858,2.3792,2.37,2.3641,2.3613,2.3536,2.3488,2.3416,2.3342,2.3273,2.3177,2.3094,2.3012,2.2923,2.2883,2.2863,2.2862,2.2864,2.2851,2.2877,2.2895,2.2879,2.2879,2.2879,2.2879,2.2879,2.2879,2.3893,2.382,2.3779,2.3675,2.362,2.354,2.3498,2.3438,2.3379,2.3275,2.3207,2.3154,2.3075,2.298,2.2901,2.2878,2.2848,2.2851,2.2824,2.2849,2.285,2.285,2.2867,2.2845,2.2845,2.2804,2.2803,2.2803]}]]